date,time,DOY,Ta_1_1_1,RH_1_1_1,LWin_1_1_1,LWout_1_1_1,SWin_1_1_1,SWout_1_1_1,PPFD_1_1_1,SWC_1_1_1,Ts_1_1_1
[yyyy-mm-dd],[HH:MM],[ddd.ddd],[K],[%],[W+1m-2],[W+1m-2],[W+1m-2],[W+1m-2],[µmol+1m-2s-1],[m+3m-3],[K]
2013-01-24,00:30,24.020,253.81800000000007,78.415999999999968,-5.9220000000000006,-9999.0,-0.21433333333333338,-1.6823333333333335,8.66666666666666453E-003,-9999.0,279.90999999999991
2013-01-24,01:00,24.041,253.65533333333340,78.048666666666662,-8.5819999999999990,-9999.0,0.27099999999999996,-3.7220000000000000,4.66666666666666619E-003,-9999.0,279.90999999999991
2013-01-24,01:30,24.062,253.36766666666668,77.274666666666675,-5.7233333333333327,-9999.0,-0.25733333333333336,-1.2366666666666666,3.33333333333333756E-004,-9999.0,279.90999999999991
2013-01-24,02:00,24.083,253.18833333333342,77.025000000000020,-6.1673333333333344,-9999.0,-0.26133333333333331,-2.0546666666666664,-1.66666666666666677E-003,-9999.0,279.90999999999991
2013-01-24,02:30,24.104,252.89800000000002,76.878666666666689,-9.1069999999999993,-9999.0,0.17066666666666669,-4.1163333333333334,7.33333333333333320E-003,-9999.0,279.90999999999991
2013-01-24,03:00,24.124,252.97633333333337,76.953666666666678,-9.8756250000000012,-9999.0,0.60899999999999999,-4.0709999999999997,7.00000000000000015E-003,-9999.0,279.90999999999991
2013-01-24,03:30,24.145,252.92066666666668,76.909000000000006,-9999.0,-9999.0,0.56900000000000006,-4.2493333333333334,6.66666666666666753E-004,-9999.0,279.90999999999991
2013-01-24,04:00,24.166,252.58833333333334,76.582333333333324,-9.9466666666666672,-9999.0,0.55066666666666675,-4.2636666666666674,9.33333333333333411E-003,-9999.0,279.90999999999991
2013-01-24,04:30,24.187,252.33100000000002,76.229000000000013,-9999.0,-9999.0,0.58566666666666678,-4.2076666666666673,1.33333333333333329E-003,-9999.0,279.90999999999991
2013-01-24,05:00,24.208,252.24033333333335,76.173000000000002,-9999.0,-9999.0,0.61400000000000010,-4.1266666666666669,3.33333333333332943E-004,-9999.0,279.90999999999991
2013-01-24,05:30,24.229,251.95633333333342,75.831666666666678,-9.8580000000000005,-9999.0,0.42533333333333345,-3.9986666666666664,-2.33333333333333353E-003,-9999.0,279.90999999999991
2013-01-24,06:00,24.249,251.43633333333335,75.082666666666668,-9999.0,-9999.0,0.40766666666666673,-4.4253333333333336,-3.33333333333332780E-004,-9999.0,279.90999999999991
2013-01-24,06:30,24.270,251.77766666666673,75.426333333333332,-9999.0,-9999.0,0.54566666666666674,-3.0283333333333333,7.00000000000000101E-003,-9999.0,279.90999999999991
2013-01-24,07:00,24.291,250.97133333333332,74.364333333333349,-8.1413333333333338,-9999.0,-0.61299999999999999,-2.2613333333333334,2.49999999999999979E-002,-9999.0,279.90999999999991
2013-01-24,07:30,24.312,249.43000000000004,72.527666666666647,-5.8376666666666663,-9999.0,0.10000000000000006,0.12533333333333338,2.5763333333333334,-9999.0,279.90999999999991
2013-01-24,08:00,24.333,250.23233333333329,73.404666666666657,-7.7023333333333328,-9999.0,4.7893333333333326,17.214333333333336,30.665333333333333,-9999.0,279.90999999999991
2013-01-24,08:30,24.354,251.45966666666675,74.665333333333336,-8.5796666666666681,-9999.0,11.803666666666667,49.005333333333319,92.772000000000020,-9999.0,279.90999999999991
2013-01-24,09:00,24.374,252.08266666666674,75.160999999999987,-9.0533333333333346,-9999.0,21.615666666666666,98.407666666666643,183.72233333333332,-9999.0,279.90999999999991
2013-01-24,09:30,24.395,252.67800000000000,75.373333333333306,-9.1675000000000004,-9999.0,37.483333333333327,216.39399999999998,354.70066666666662,-9999.0,279.90999999999991
2013-01-24,10:00,24.416,254.29233333333340,76.801666666666662,-9999.0,-9999.0,51.702666666666680,304.35933333333338,507.26766666666668,-9999.0,279.90999999999991
2013-01-24,10:30,24.437,254.34499999999997,77.057333333333332,-9999.0,-9999.0,46.912000000000006,275.02800000000008,499.63933333333335,-9999.0,279.90999999999991
2013-01-24,11:00,24.458,254.66000000000011,76.618000000000009,-9999.0,-9999.0,69.493999999999986,397.90766666666667,714.26599999999996,-9999.0,279.90999999999991
2013-01-24,11:30,24.479,255.00800000000012,74.577333333333328,-9.7174999999999994,-9999.0,75.864999999999981,447.32200000000000,779.01766666666651,-9999.0,279.90999999999991
2013-01-24,12:00,24.499,255.52033333333335,67.103999999999999,-9.3462499999999995,-9999.0,55.382333333333335,332.38533333333334,576.02566666666678,-9999.0,279.90999999999991
2013-01-24,12:30,24.520,255.87400000000008,59.730999999999995,-6.9696428571428557,-9999.0,63.483333333333327,324.80133333333328,610.18933333333337,-9999.0,279.90999999999991
2013-01-24,13:00,24.541,255.94833333333338,56.358333333333341,-5.0633333333333352,-9999.0,56.498000000000005,296.78000000000003,554.58333333333326,-9999.0,279.90999999999991
2013-01-24,13:30,24.562,256.34033333333332,57.201000000000008,-5.3360000000000003,-9999.0,55.482333333333358,278.44066666666663,530.80366666666657,-9999.0,279.90999999999991
2013-01-24,14:00,24.583,256.88666666666671,56.478333333333339,-7.1556666666666677,-9999.0,46.626333333333328,235.37833333333339,454.43133333333316,-9999.0,279.90999999999991
2013-01-24,14:30,24.604,257.17233333333331,55.649999999999999,-7.4506666666666668,-9999.0,34.902333333333331,164.03733333333332,324.11233333333331,-9999.0,279.90999999999991
2013-01-24,15:00,24.624,257.35599999999999,54.936333333333337,-6.2833333333333341,-9999.0,25.401999999999997,117.20333333333330,232.83800000000002,-9999.0,279.90999999999991
2013-01-24,15:30,24.645,257.59899999999993,52.948999999999991,-5.0466666666666669,-9999.0,14.840333333333337,66.958000000000013,134.98666666666665,-9999.0,279.90999999999991
2013-01-24,16:00,24.666,257.48700000000014,53.237999999999992,-5.2030000000000021,-9999.0,8.8090000000000011,40.250333333333323,81.568333333333342,-9999.0,279.90999999999991
2013-01-24,16:30,24.687,257.31700000000006,53.454333333333324,-4.5680000000000005,-9999.0,3.3626666666666667,16.154333333333330,33.635666666666665,-9999.0,279.90999999999991
2013-01-24,17:00,24.708,257.19599999999997,56.815000000000012,-4.7963333333333349,-9999.0,0.14233333333333328,1.9656666666666667,6.8059999999999983,-9999.0,279.90999999999991
2013-01-24,17:30,24.729,257.14466666666664,58.519000000000005,-4.7540000000000004,-9999.0,-0.43700000000000011,-0.74333333333333340,0.31599999999999995,-9999.0,279.90999999999991
2013-01-24,18:00,24.749,257.14433333333335,60.117000000000004,-5.0176666666666678,-9.8283333333333331,-0.54166666666666652,-0.87533333333333341,7.66666666666666885E-003,-9999.0,279.90999999999991
2013-01-24,18:30,24.770,257.15133333333335,60.441666666666684,-4.6563333333333334,-9.3073333333333306,-0.48700000000000027,-0.78166666666666651,8.66666666666666627E-003,-9999.0,279.90999999999991
2013-01-24,19:00,24.791,257.19133333333326,61.173666666666669,-4.8683333333333332,-9.1396666666666704,-0.52033333333333343,-0.80899999999999994,9.33333333333333411E-003,-9999.0,279.90999999999991
2013-01-24,19:30,24.812,257.25466666666665,60.968333333333341,-4.4786666666666672,-9.0621428571428559,-0.42933333333333318,-0.69933333333333336,6.33333333333333318E-003,-9999.0,279.90999999999991
2013-01-24,20:00,24.833,257.42999999999995,58.948999999999998,-4.4393333333333347,-9.6027777777777779,-0.34866666666666668,-0.69566666666666666,1.13333333333333359E-002,-9999.0,279.90999999999991
2013-01-24,20:30,24.854,257.51166666666671,57.089666666666666,-4.3343333333333334,-9.6071428571428577,-0.33466666666666661,-0.65066666666666662,1.26666666666666664E-002,-9999.0,279.90999999999991
2013-01-24,21:00,24.874,257.54200000000003,57.494666666666667,-4.1250000000000000,-8.4986666666666686,-0.31799999999999995,-0.57199999999999984,2.66666666666666658E-003,-9999.0,279.90999999999991
2013-01-24,21:30,24.895,257.35600000000005,65.495333333333335,-3.8113333333333324,-7.2809999999999997,-0.36199999999999993,-0.52200000000000013,1.06666666666666680E-002,-9999.0,279.90999999999991
2013-01-24,22:00,24.916,257.20833333333331,74.419333333333313,-3.5240000000000005,-6.3596666666666675,-0.31466666666666671,-0.45400000000000001,1.40000000000000020E-002,-9999.0,279.90999999999991
2013-01-24,22:30,24.937,257.21966666666674,77.949333333333328,-3.3470000000000000,-6.1433333333333318,-0.27700000000000002,-0.39333333333333337,7.33333333333333320E-003,-9999.0,279.90999999999991
2013-01-24,23:00,24.958,257.30500000000001,78.999333333333354,-3.3893333333333326,-6.0139999999999985,-0.23500000000000004,-0.37233333333333324,5.33333333333333316E-003,-9999.0,279.90999999999991
2013-01-24,23:30,24.979,257.45533333333333,78.804666666666662,-3.3226666666666675,-5.6219999999999990,-0.21700000000000005,-0.31733333333333330,1.30000000000000046E-002,-9999.0,279.90999999999991
2013-01-25,00:00,25.000,257.56666666666666,79.185666666666663,-3.3196666666666661,-5.1616666666666662,-0.22300000000000006,-0.29300000000000004,8.33333333333333322E-003,-9999.0,279.90999999999991
